CW0138 Weather Reports


Display with metric or nautical units.
time (UTC)temp
F
wind
direction
speed
MPH
gust
MPH
rain 1hr
in
rain 24hr
in
rain mn
in
humidity
%
barometer
mb
20260503215804 78 242 0.0 2.0 0.00 0.00 0.00 47 1010.7
20260503215304 78 236 1.0 2.0 0.00 0.00 0.00 47 1010.7
20260503214805 78 236 1.0 3.0 0.00 0.00 0.00 48 1010.8
20260503214305 77 244 1.0 2.0 0.00 0.00 0.00 48 1010.8
20260503213805 77 244 1.0 2.0 0.00 0.00 0.00 47 1010.8
20260503213304 77 244 1.0 2.0 0.00 0.00 0.00 46 1010.8
20260503212805 77 300 1.0 3.0 0.00 0.00 0.00 46 1010.9
20260503212305 77 299 0.0 2.0 0.00 0.00 0.00 47 1010.9
20260503211805 76 244 0.0 3.0 0.00 0.00 0.00 47 1010.9
20260503210805 76 255 1.0 3.0 0.00 0.00 0.00 46 1011.0
20260503205805 76 296 1.0 2.0 0.00 0.00 0.00 47 1011.1
20260503205304 76 288 1.0 3.0 0.00 0.00 0.00 47 1011.1
20260503204805 76 248 1.0 2.0 0.00 0.00 0.00 48 1011.1
20260503204305 76 248 0.0 2.0 0.00 0.00 0.00 49 1011.2
20260503203805 76 248 0.0 2.0 0.00 0.00 0.00 48 1011.3
20260503202304 76 219 1.0 3.0 0.00 0.00 0.00 48 1011.3
20260503201305 76 212 0.0 1.0 0.00 0.00 0.00 49 1011.5
20260503200805 76 212 1.0 1.0 0.00 0.00 0.00 48 1011.5
20260503195304 76 217 1.0 3.0 0.00 0.00 0.00 49 1011.7
20260503194804 76 226 0.0 2.0 0.00 0.00 0.00 49 1011.8
20260503194305 76 244 1.0 2.0 0.00 0.00 0.00 49 1011.9
20260503193804 76 207 1.0 3.0 0.00 0.00 0.00 50 1012.0
20260503193305 75 215 0.0 1.0 0.00 0.00 0.00 50 1012.1
20260503192804 75 215 0.0 2.0 0.00 0.00 0.00 49 1012.1
20260503192305 75 215 0.0 2.0 0.00 0.00 0.00 50 1012.1
20260503191804 75 214 0.0 2.0 0.00 0.00 0.00 52 1012.1
20260503191305 75 209 1.0 3.0 0.00 0.00 0.00 50 1012.2
20260503190805 75 146 1.0 3.0 0.00 0.00 0.00 51 1012.2
20260503190305 74 196 1.0 2.0 0.00 0.00 0.00 50 1012.3
20260503185804 74 196 1.0 2.0 0.00 0.00 0.00 51 1012.4
20260503185305 74 195 1.0 3.0 0.00 0.00 0.00 51 1012.4
20260503184805 74 206 1.0 3.0 0.00 0.00 0.00 51 1012.5
20260503184306 74 149 1.0 3.0 0.00 0.00 0.00 51 1012.5
20260503183804 74 319 1.0 2.0 0.00 0.00 0.00 52 1012.6
20260503183305 73 319 1.0 2.0 0.00 0.00 0.00 53 1012.7
20260503182804 73 4 0.0 1.0 0.00 0.00 0.00 52 1012.7
20260503182306 73 5 0.0 2.0 0.00 0.00 0.00 53 1012.7
20260503181805 73 5 2.0 3.0 0.00 0.00 0.00 50 1012.7
20260503181305 73 348 0.0 2.0 0.00 0.00 0.00 51 1012.7
20260503180805 72 348 1.0 2.0 0.00 0.00 0.00 51 1012.8
20260503180304 72 6 3.0 7.0 0.00 0.00 0.00 53 1012.8
20260503175804 72 9 1.0 3.0 0.00 0.00 0.00 56 1012.8
20260503175305 71 10 0.0 2.0 0.00 0.00 0.00 56 1012.9
20260503174804 71 10 1.0 3.0 0.00 0.00 0.00 54 1012.9
20260503174305 71 8 2.0 5.0 0.00 0.00 0.00 54 1012.9
20260503172804 71 7 3.0 5.0 0.00 0.00 0.00 51 1013.1
20260503172305 71 10 1.0 3.0 0.00 0.00 0.00 52 1013.1
20260503171805 71 5 0.0 3.0 0.00 0.00 0.00 53 1013.1
20260503171305 71 315 0.0 3.0 0.00 0.00 0.00 52 1013.1
20260503170805 71 290 0.0 2.0 0.00 0.00 0.00 53 1013.1
20260503170305 71 290 1.0 2.0 0.00 0.00 0.00 55 1013.1
20260503150804 62 0 0.0 0.0 0.00 0.00 0.00 73 1013.5
20260503150304 62 0 0.0 0.0 0.00 0.00 0.00 73 1013.6
20260503140305 54 0 0.0 0.0 0.00 0.00 0.00 85 1013.3
20260503131304 54 0 0.0 0.0 0.00 0.00 0.00 84 1013.1
20260503130805 54 0 0.0 0.0 0.00 0.00 0.00 84 1013.1
20260503110806 55 0 0.0 0.0 0.00 0.00 0.00 81 1013.5
20260503110305 55 0 0.0 0.0 0.00 0.00 0.00 80 1013.5
20260503090305 56 0 0.0 0.0 0.00 0.00 0.00 73 1013.6
20260503081305 57 0 0.0 0.0 0.00 0.00 0.00 70 1013.6
20260503080805 57 0 0.0 0.0 0.00 0.00 0.00 70 1013.6
20260503080304 57 0 0.0 0.0 0.00 0.00 0.00 71 1013.6
20260503072804 57 0 0.0 0.0 0.00 0.00 0.00 70 1013.5
20260503071305 58 0 0.0 0.0 0.00 0.00 0.00 71 1013.4
20260503070804 58 0 0.0 0.0 0.00 0.00 0.00 70 1013.4
20260503070304 58 0 0.0 0.0 0.00 0.00 0.00 70 1013.4
20260503060305 59 0 0.0 0.0 0.00 0.00 0.00 68 1013.4
20260503054804 60 0 0.0 0.0 0.00 0.00 0.00 67 1013.4
20260503054304 60 0 0.0 0.0 0.00 0.00 0.00 67 1013.4
20260503053804 60 0 0.0 0.0 0.00 0.00 0.00 67 1013.4
20260503053304 60 0 0.0 0.0 0.00 0.00 0.00 67 1013.4
20260503052804 61 0 0.0 0.0 0.00 0.00 0.00 66 1013.4
20260503052305 61 0 0.0 0.0 0.00 0.00 0.00 66 1013.5
20260503051304 61 0 0.0 0.0 0.00 0.00 0.00 65 1013.4
20260503050304 62 0 0.0 0.0 0.00 0.00 0.00 64 1013.4
20260503045804 62 0 0.0 0.0 0.00 0.00 0.00 63 1013.3
20260503045305 62 0 0.0 0.0 0.00 0.00 0.00 63 1013.3
20260503044804 62 0 0.0 0.0 0.00 0.00 0.00 63 1013.2
20260503044304 63 0 0.0 0.0 0.00 0.00 0.00 63 1013.2
20260503043805 63 0 0.0 0.0 0.00 0.00 0.00 62 1013.1
20260503043304 63 0 0.0 0.0 0.00 0.00 0.00 59 1013.1
20260503042804 63 0 0.0 0.0 0.00 0.00 0.00 60 1013.1
20260503042305 63 0 0.0 0.0 0.00 0.00 0.00 60 1013.0
20260503041804 64 0 0.0 0.0 0.00 0.00 0.00 60 1012.9
20260503041304 64 0 0.0 0.0 0.00 0.00 0.00 59 1012.8
20260503040804 64 0 0.0 0.0 0.00 0.00 0.00 59 1012.7
20260503040306 65 0 0.0 0.0 0.00 0.00 0.00 59 1012.7
20260503035804 65 0 0.0 0.0 0.00 0.00 0.00 58 1012.6
20260503034304 66 0 0.0 0.0 0.00 0.00 0.00 57 1012.4
20260503033305 66 0 0.0 0.0 0.00 0.00 0.00 58 1012.3
20260503032804 67 0 0.0 0.0 0.00 0.00 0.00 58 1012.3
20260503031804 68 0 0.0 0.0 0.00 0.00 0.00 57 1012.2
20260503030805 68 0 0.0 0.0 0.00 0.00 0.00 55 1012.1
20260503030304 69 0 0.0 0.0 0.00 0.00 0.00 54 1012.0
20260503025804 69 0 0.0 0.0 0.00 0.00 0.00 52 1012.0
20260503025305 69 0 0.0 0.0 0.00 0.00 0.00 51 1012.0
20260503024804 69 0 0.0 0.0 0.00 0.00 0.00 50 1011.9
20260503024304 70 0 0.0 2.0 0.00 0.00 0.00 50 1011.9
20260503023804 70 0 0.0 2.0 0.00 0.00 0.00 50 1011.9
20260503023305 70 0 0.0 2.0 0.00 0.00 0.00 50 1011.9
20260503022804 70 0 0.0 3.0 0.00 0.00 0.00 49 1011.9
20260503022305 70 0 0.0 0.0 0.00 0.00 0.00 50 1011.8
20260503021304 70 0 1.0 2.0 0.00 0.00 0.00 49 1011.9
20260503020805 71 0 0.0 2.0 0.00 0.00 0.00 49 1011.9
20260503020305 71 0 1.0 2.0 0.00 0.00 0.00 50 1011.9
20260503015805 71 0 1.0 3.0 0.00 0.00 0.00 50 1011.9
20260503015305 71 0 1.0 3.0 0.00 0.00 0.00 49 1012.0
20260503014804 71 0 1.0 3.0 0.00 0.00 0.00 50 1012.0
20260503014304 72 0 2.0 3.0 0.00 0.00 0.00 50 1012.0
20260503013804 72 0 1.0 3.0 0.00 0.00 0.00 51 1012.0
20260503012805 72 0 1.0 3.0 0.00 0.00 0.00 51 1012.1
20260503012305 72 0 2.0 3.0 0.00 0.00 0.00 52 1012.1
20260503011805 73 0 1.0 3.0 0.00 0.00 0.00 52 1012.1
20260503010804 73 0 0.0 2.0 0.00 0.00 0.00 55 1012.1
20260503010305 73 0 1.0 3.0 0.00 0.00 0.00 55 1012.2
20260503005304 72 0 0.0 0.0 0.00 0.00 0.00 56 1012.2
20260503004305 72 0 0.0 0.0 0.00 0.00 0.00 56 1012.2
20260503003304 73 0 0.0 1.0 0.00 0.00 0.00 56 1012.3
20260503002804 73 0 0.0 0.0 0.00 0.00 0.00 56 1012.3
20260503002305 73 0 0.0 0.0 0.00 0.00 0.00 56 1012.2
20260503001804 73 0 0.0 1.0 0.00 0.00 0.00 57 1012.2
20260503001304 73 0 0.0 0.0 0.00 0.00 0.00 56 1012.2
20260503000804 73 0 0.0 1.0 0.00 0.00 0.00 56 1012.3
20260503000304 73 0 0.0 2.0 0.00 0.00 0.00 56 1012.3
20260502235804 73 0 0.0 2.0 0.00 0.00 0.00 55 1012.4
20260502235305 73 0 0.0 2.0 0.00 0.00 0.00 56 1012.4
20260502234804 73 0 1.0 2.0 0.00 0.00 0.00 55 1012.5
20260502234304 73 0 0.0 1.0 0.00 0.00 0.00 55 1012.6
20260502233804 73 0 0.0 1.0 0.00 0.00 0.00 56 1012.7
20260502233304 73 206 0.0 3.0 0.00 0.00 0.00 56 1012.7
20260502232804 74 225 0.0 3.0 0.00 0.00 0.00 55 1012.8
20260502232305 74 228 0.0 1.0 0.00 0.00 0.00 55 1012.8
20260502231804 74 0 0.0 1.0 0.00 0.00 0.00 54 1012.9
20260502231304 74 227 0.0 2.0 0.00 0.00 0.00 55 1013.0
20260502230804 74 228 0.0 2.0 0.00 0.00 0.00 55 1013.1
20260502225804 74 292 0.0 2.0 0.00 0.00 0.00 55 1013.3
20260502225305 74 265 0.0 2.0 0.00 0.00 0.00 52 1013.4
20260502224804 75 223 1.0 6.0 0.00 0.00 0.00 52 1013.4
20260502223804 75 229 0.0 2.0 0.00 0.00 0.00 52 1013.4
20260502223304 74 229 0.0 2.0 0.00 0.00 0.00 52 1013.4
20260502222804 74 229 0.0 3.0 0.00 0.00 0.00 53 1013.6
20260502222305 74 260 1.0 3.0 0.00 0.00 0.00 54 1013.7
20260502221804 73 317 1.0 1.0 0.00 0.00 0.00 53 1013.8
20260502221304 73 317 1.0 2.0 0.00 0.00 0.00 52 1013.8